Date,TemperatureHighF,TemperatureAvgF,TemperatureLowF,DewpointHighF,DewpointAvgF,DewpointLowF,HumidityHigh,HumidityAvg,HumidityLow,PressureMaxIn,PressureMinIn,WindSpeedMaxMPH,WindSpeedAvgMPH,GustSpeedMaxMPH,PrecipitationSumIn
2013-1-1,45.5,40.5,36.0,45.4,38.8,29.4,100,94,71,30.12,29.97,10,0,13,0.33
2013-1-2,39.2,36.6,34.9,37.9,32.5,30.2,96,85,75,30.20,30.03,6,0,11,0.21
2013-1-3,49.1,37.0,31.3,31.9,26.7,18.7,84,68,37,30.37,30.17,7,0,9,0.00
2013-1-4,51.0,35.9,27.5,26.5,21.7,19.5,78,58,33,30.44,30.35,8,0,13,0.00
2013-1-5,49.2,38.0,27.5,34.5,23.5,19.0,87,58,31,30.45,30.26,7,0,8,0.03
2013-1-6,45.5,39.9,36.3,36.9,34.2,26.7,95,81,62,30.32,30.14,7,1,10,0.02
2013-1-7,53.2,40.6,29.7,31.8,26.8,23.1,79,59,37,30.44,30.30,10,1,13,0.00
2013-1-8,53.9,45.4,36.0,33.9,30.1,26.8,69,56,36,30.42,30.28,8,0,11,0.00
2013-1-9,49.8,46.7,41.6,47.0,39.5,30.8,97,77,51,30.47,30.31,6,0,9,0.18
2013-1-10,61.8,55.0,48.6,52.0,49.1,46.4,96,81,67,30.45,30.15,7,1,10,0.00
2013-1-11,66.9,61.2,55.0,61.5,56.1,49.3,96,84,68,30.13,30.01,11,1,16,0.04
2013-1-12,72.0,64.9,61.3,63.1,60.8,54.7,99,87,69,30.10,29.97,8,0,10,0.02
2013-1-13,68.8,64.0,59.8,60.1,56.3,53.2,99,77,62,30.00,29.90,14,1,17,0.95
2013-1-14,60.1,41.9,35.3,59.8,40.7,34.2,99,96,93,30.32,30.00,9,1,13,1.01
2013-1-15,42.2,39.8,37.5,41.8,39.3,36.7,99,98,97,30.22,29.99,8,1,11,1.44
2013-1-16,46.5,41.4,39.2,46.0,40.9,37.6,100,98,94,30.08,29.92,7,0,11,1.05
2013-1-17,40.9,35.4,30.0,40.4,33.5,28.0,98,93,78,30.36,29.96,9,1,15,0.20
2013-1-18,52.0,35.5,26.6,35.9,29.1,25.1,96,79,50,30.56,30.37,4,0,8,0.43
2013-1-19,51.1,37.0,24.7,36.4,28.3,23.5,99,74,40,30.46,30.18,8,1,14,0.13
2013-1-20,61.6,47.0,36.9,35.1,28.7,19.5,71,50,32,30.20,30.11,9,1,11,0.00
2013-1-21,53.8,39.2,27.8,24.4,15.5,5.4,61,39,21,30.22,30.10,8,1,17,0.00
2013-1-22,40.1,28.9,19.5,9.8,-0.0,-8.1,52,30,16,30.39,30.21,8,1,11,0.00
2013-1-23,47.4,35.5,23.5,26.1,10.6,-2.7,55,36,21,30.39,30.12,9,1,15,0.00
2013-1-24,41.2,33.5,26.0,30.6,10.3,-2.0,68,40,22,30.46,30.12,15,2,18,0.00
2013-1-25,33.5,29.0,24.8,32.5,21.9,1.9,96,78,35,30.40,30.12,6,0,8,0.00
2013-1-26,52.2,36.9,29.0,37.5,30.9,25.2,96,81,50,30.39,30.21,4,0,8,0.23
2013-1-27,51.7,37.8,26.4,36.7,29.0,23.8,91,72,46,30.46,30.32,6,0,9,0.00
2013-1-28,55.1,47.6,39.9,49.3,40.7,34.6,85,77,57,30.37,30.21,9,1,13,0.00
2013-1-29,67.6,56.1,45.7,54.5,49.5,44.0,98,80,60,30.22,29.84,6,0,9,0.00
2013-1-30,68.8,56.4,40.9,60.0,51.8,34.2,100,85,68,29.83,29.47,18,2,24,0.92
2013-1-31,43.1,37.2,32.2,33.7,23.0,19.3,82,57,39,30.05,29.66,18,4,20,0.16
2013-2-1,39.8,29.5,18.8,31.9,13.2,4.5,89,52,28,30.44,29.98,13,2,18,0.27
2013-2-2,34.3,28.3,21.6,29.4,21.4,11.4,87,75,60,30.40,30.11,8,1,16,0.00
2013-2-3,46.2,35.5,28.2,37.2,27.5,19.3,96,74,48,30.19,30.00,13,1,16,0.18
2013-2-4,47.7,36.6,25.8,27.0,22.6,18.8,81,59,33,30.17,29.96,7,1,9,0.09
2013-2-5,58.7,48.1,42.1,39.8,33.7,26.7,71,58,44,30.00,29.92,9,2,15,0.00
2013-2-6,64.8,51.4,38.9,39.1,30.0,23.8,74,46,25,30.18,30.01,6,0,9,0.00
2013-2-7,55.9,48.9,43.6,43.3,32.2,24.0,84,54,36,30.13,29.92,9,0,9,0.01
2013-2-8,57.6,44.9,36.2,51.4,37.9,26.5,98,78,48,30.28,29.88,10,1,17,0.08
2013-2-9,52.6,41.4,29.0,27.2,22.0,16.1,80,49,26,30.37,30.23,11,2,14,0.00
2013-2-10,58.7,47.1,39.5,44.4,29.2,16.1,96,54,26,30.24,29.97,4,0,9,0.10
2013-2-11,56.2,50.7,44.6,52.6,41.7,25.7,99,75,39,30.12,29.96,9,2,15,0.09
2013-2-12,56.9,46.3,39.6,35.8,26.7,20.7,74,48,29,30.18,29.86,9,1,14,0.03
2013-2-13,46.7,41.7,37.0,44.6,37.5,32.2,97,85,63,29.99,29.68,10,1,18,0.31
2013-2-14,53.8,43.3,33.2,34.7,32.1,28.6,87,66,44,30.09,29.98,8,1,16,0.00
2013-2-15,58.7,43.6,34.0,39.1,33.6,27.8,82,69,44,30.11,30.01,10,1,16,0.02
2013-2-16,43.2,31.7,25.4,28.9,18.3,7.0,81,59,27,30.14,30.02,13,1,16,0.00
2013-2-17,46.2,32.5,20.8,14.1,8.5,4.2,62,39,19,30.28,30.14,8,1,15,0.00
2013-2-18,58.1,43.3,27.6,25.4,18.5,8.3,63,38,26,30.32,29.97,10,1,15,0.00
2013-2-19,54.4,44.2,34.9,41.1,27.5,8.9,94,58,19,30.17,29.91,16,3,26,0.23
2013-2-20,48.3,37.6,30.3,21.7,14.1,7.3,65,40,21,30.25,30.16,8,1,10,0.00
2013-2-21,51.9,40.0,28.2,36.4,18.2,11.4,89,45,21,30.27,30.01,14,2,15,0.25
2013-2-22,55.1,47.4,37.6,46.1,42.0,35.8,96,82,66,30.09,29.98,6,0,11,0.29
2013-2-23,59.2,50.1,44.6,46.9,44.5,36.7,97,82,63,30.01,29.82,4,0,7,0.10
2013-2-24,59.2,47.0,36.2,36.2,25.1,18.8,75,45,23,30.08,29.91,10,0,16,0.00
2013-2-25,56.5,47.0,38.6,34.2,25.6,20.4,57,44,30,30.06,29.79,9,2,14,0.00
2013-2-26,61.5,48.5,41.5,50.6,40.3,32.8,94,74,54,29.78,29.41,24,5,30,0.37
2013-2-27,46.2,40.8,38.8,36.1,32.4,29.8,85,72,59,29.86,29.67,13,3,21,0.02
2013-2-28,41.3,37.4,35.0,31.9,27.0,22.7,82,66,52,30.00,29.81,10,2,15,0.02
2013-3-1,42.8,38.2,35.0,33.2,30.6,27.6,87,74,57,30.00,29.93,8,0,8,0.01
2013-3-2,40.2,33.9,29.3,32.4,26.7,17.3,93,76,58,30.09,29.94,8,1,14,0.02
2013-3-3,35.3,29.6,23.3,20.9,16.6,13.0,74,59,44,30.14,30.07,7,0,11,0.00
2013-3-4,52.2,38.0,23.8,22.5,17.3,12.2,78,47,21,30.22,30.00,7,0,9,0.00
2013-3-5,46.5,40.3,32.9,46.5,33.8,18.1,100,81,38,30.02,29.63,14,2,22,1.19
2013-3-6,33.4,31.3,28.8,30.1,27.2,21.7,91,85,71,30.29,29.86,10,1,11,0.24
2013-3-7,35.8,33.0,31.3,30.1,26.9,24.5,93,78,71,30.39,30.25,7,0,11,0.04
2013-3-8,52.5,40.0,28.1,28.1,24.6,22.1,79,56,33,30.43,30.31,10,2,20,0.00
2013-3-9,64.3,50.1,36.2,32.5,27.6,24.2,64,44,23,30.31,30.15,8,1,13,0.00
2013-3-10,71.6,59.3,49.4,38.6,31.4,25.7,53,36,21,30.15,29.95,9,0,11,0.00
2013-3-11,64.7,57.6,45.5,52.7,45.5,31.4,98,67,33,29.95,29.75,13,3,24,0.46
2013-3-12,56.3,45.7,38.2,41.8,32.1,26.9,91,61,36,30.09,29.85,9,1,11,0.09
2013-3-13,46.7,39.6,32.5,31.0,22.2,13.8,70,51,31,30.33,30.06,13,2,15,0.00
2013-3-14,51.0,38.2,26.3,23.1,16.3,12.3,70,43,24,30.42,30.25,9,1,10,0.00
2013-3-15,67.9,51.8,35.6,42.2,33.4,23.1,80,52,33,30.26,29.86,9,1,16,0.00
2013-3-16,76.8,66.1,56.5,47.7,43.7,40.1,55,45,30,29.86,29.72,16,3,18,0.00
2013-3-17,73.0,64.4,57.3,50.2,46.8,43.3,70,54,37,29.92,29.79,10,1,16,0.00
2013-3-18,62.6,54.9,50.4,54.1,49.2,43.8,99,82,59,29.85,29.76,11,1,13,0.44
2013-3-19,62.1,50.4,36.9,52.2,27.0,6.6,99,48,15,30.12,29.80,13,1,16,0.15
2013-3-20,58.3,46.5,34.4,33.1,16.5,6.5,76,33,15,30.13,29.87,13,1,20,0.03
2013-3-21,44.1,35.1,25.6,18.5,11.8,6.9,62,39,23,30.02,29.96,11,1,13,0.00
2013-3-22,49.5,39.0,28.1,28.5,17.3,9.6,58,42,23,30.10,30.00,4,0,8,0.00
2013-3-23,55.0,45.9,38.0,41.8,34.5,24.0,87,65,43,30.03,29.77,9,1,13,0.00
2013-3-24,52.9,48.1,41.1,51.5,44.0,31.7,97,86,60,29.78,29.34,14,2,24,0.44
2013-3-25,40.9,34.7,30.7,33.2,28.5,24.0,92,79,56,30.03,29.58,17,4,23,0.07
2013-3-26,40.6,34.2,30.6,30.6,27.5,23.1,89,77,51,30.30,30.03,9,1,11,0.08
2013-3-27,51.9,40.2,30.9,28.8,24.2,18.3,82,56,28,30.35,30.26,9,0,14,0.05
2013-3-28,57.5,44.3,31.3,27.4,20.0,12.4,69,42,17,30.36,30.25,7,0,14,0.14
2013-3-29,49.1,41.6,36.3,40.2,30.3,18.7,96,67,40,30.36,30.25,6,0,7,0.02
2013-3-30,61.2,49.1,40.6,48.7,41.7,39.0,96,78,48,30.25,30.00,8,1,10,0.02
2013-3-31,62.0,53.8,49.5,54.5,51.6,48.4,100,93,71,29.99,29.83,9,1,15,0.02
2013-4-1,63.5,52.2,41.9,49.8,41.5,30.4,99,72,34,30.06,29.87,9,1,15,0.00
2013-4-2,57.8,47.4,34.9,31.2,19.7,13.5,57,35,19,30.23,30.06,9,1,14,0.01
2013-4-3,57.3,47.5,36.2,22.9,16.6,13.6,43,30,21,30.28,30.18,14,2,22,0.00
2013-4-4,49.2,43.0,40.1,39.4,30.7,13.6,94,68,24,30.18,29.99,11,2,18,0.00
2013-4-5,64.5,51.0,40.2,44.9,35.8,27.0,93,63,27,30.08,29.98,10,0,13,0.00
2013-4-6,72.0,58.7,42.5,39.2,34.1,26.7,74,42,21,30.17,30.03,9,0,11,0.00
2013-4-7,74.2,63.8,53.2,43.8,37.5,30.9,51,38,26,30.12,30.00,14,2,18,0.00
2013-4-8,76.3,67.3,56.7,52.5,46.3,40.9,64,48,34,30.06,29.97,16,2,20,0.00
2013-4-9,82.6,71.0,61.6,54.9,51.0,48.4,62,50,34,30.14,29.97,11,2,15,0.00
2013-4-10,86.5,74.5,60.5,57.8,53.2,50.3,72,49,29,30.06,29.82,8,1,15,0.00
2013-4-11,82.0,72.3,58.7,62.1,54.0,49.0,98,55,35,29.84,29.58,13,2,22,0.00
2013-4-12,65.8,59.2,52.3,60.1,45.6,32.0,100,65,31,29.91,29.52,10,2,14,0.00
2013-4-13,72.1,60.4,47.0,42.4,36.1,28.9,71,43,22,30.04,29.91,4,0,10,0.00
2013-4-14,71.5,61.1,52.3,47.7,38.8,30.6,68,45,27,30.01,29.90,8,1,11,0.00
2013-4-15,78.3,66.1,55.9,56.5,51.3,46.6,78,60,41,30.04,29.88,6,0,9,0.00
2013-4-16,82.8,70.4,56.9,61.2,57.0,52.5,89,64,43,30.19,30.04,7,0,10,0.00
2013-4-17,72.8,65.5,61.3,61.6,59.8,55.6,94,82,64,30.22,30.01,21,2,22,0.00
2013-4-18,83.2,71.3,58.3,62.5,55.7,47.2,99,63,30,30.02,29.76,10,1,18,0.00
2013-4-19,73.5,58.9,45.8,62.8,48.0,31.9,99,69,51,30.07,29.60,15,2,26,0.00
2013-4-20,62.0,50.0,35.3,34.6,27.9,21.4,82,46,21,30.27,30.08,6,0,13,0.00
2013-4-21,66.3,54.6,43.1,35.4,29.4,25.9,54,39,25,30.38,30.24,8,1,11,0.00
2013-4-22,69.6,59.2,48.2,42.2,36.1,32.6,62,44,27,30.32,30.12,9,1,16,0.00
2013-4-23,74.7,61.7,48.6,48.1,40.7,33.3,69,47,29,30.19,29.99,4,0,8,0.00
2013-4-24,70.9,59.0,45.2,60.9,49.5,38.3,93,72,52,30.21,29.93,10,1,18,0.00
2013-4-25,66.6,53.6,40.6,40.9,34.4,26.3,83,52,22,30.34,30.21,7,0,13,0.00
2013-4-26,69.4,57.1,45.5,45.6,35.2,28.2,66,45,27,30.39,30.28,9,1,14,0.00
2013-4-27,56.5,54.3,51.3,54.2,50.1,41.3,97,86,59,30.33,30.09,4,0,7,0.00
2013-4-28,59.5,55.8,52.8,57.2,54.2,50.9,99,94,86,30.11,29.92,9,0,14,0.00
2013-4-29,73.9,63.3,56.6,58.0,54.4,51.3,93,74,47,30.01,29.90,2,0,9,0.00
2013-4-30,82.0,68.7,56.5,58.0,51.9,44.6,86,59,28,30.04,29.92,6,0,9,0.00
2013-5-1,77.2,68.4,60.7,56.0,52.7,48.6,77,58,42,30.16,30.02,13,2,18,0.00
2013-5-2,76.8,66.6,58.7,56.6,51.6,48.4,71,59,45,30.16,30.06,11,2,15,0.00
2013-5-3,74.0,65.1,57.0,52.8,49.4,43.8,79,58,35,30.09,29.93,15,4,24,0.00
2013-5-4,62.1,57.8,53.3,52.6,46.4,32.2,92,68,39,29.93,29.87,16,3,21,0.00
2013-5-5,58.0,54.0,52.2,55.4,51.2,48.1,96,90,84,29.88,29.75,17,3,21,0.00
2013-5-6,63.7,54.5,48.3,52.1,48.1,45.2,98,80,56,29.90,29.76,6,0,7,0.00
2013-5-7,69.6,58.7,48.2,52.1,48.5,45.3,95,71,48,29.93,29.86,7,0,9,0.00
2013-5-8,72.1,63.9,57.2,60.5,56.3,51.4,92,77,58,30.03,29.89,6,0,10,0.00
2013-5-9,80.1,67.4,57.2,64.0,56.8,53.6,93,71,44,30.07,29.98,2,0,7,0.00
2013-5-10,73.9,67.5,60.4,61.2,56.3,52.9,83,68,53,30.02,29.89,10,0,15,0.00
2013-5-11,76.8,66.1,54.8,63.4,56.5,47.1,96,72,47,29.95,29.81,7,0,10,0.00
2013-5-12,66.4,56.9,49.8,49.5,37.1,22.8,85,51,22,30.11,29.94,7,0,9,0.00
2013-5-13,67.4,57.3,46.4,40.9,33.0,27.0,64,42,22,30.22,30.11,7,0,10,0.00
2013-5-14,77.4,63.3,44.5,53.5,43.5,33.3,73,50,31,30.22,30.00,7,0,14,0.00
2013-5-15,85.7,73.8,61.8,58.2,54.3,50.8,74,53,33,30.10,29.93,6,0,11,0.00
2013-5-16,82.0,71.2,61.8,60.7,55.2,48.5,83,58,41,30.01,29.92,6,0,9,0.00
2013-5-17,80.5,70.8,61.6,64.3,60.9,58.0,94,73,49,30.05,29.96,4,0,7,0.00
2013-5-18,73.5,67.5,63.4,67.7,64.7,62.0,99,91,75,30.03,29.96,7,0,9,0.00
2013-5-19,80.1,68.1,62.9,69.2,65.4,61.7,100,92,68,30.02,29.96,4,0,8,0.00
2013-5-20,83.0,71.4,60.7,67.6,63.4,60.1,99,78,52,30.09,29.94,2,0,6,0.00
2013-5-21,89.5,75.0,65.3,69.8,64.4,58.8,96,72,44,29.99,29.86,4,0,10,0.00
2013-5-22,85.7,71.6,62.9,68.4,62.6,58.3,94,75,49,29.92,29.78,4,0,11,0.00
2013-5-23,83.6,71.1,62.9,65.1,59.6,51.9,97,70,41,29.96,29.83,8,0,9,0.00
2013-5-24,69.6,61.4,54.1,55.5,46.0,37.5,89,60,32,30.26,29.96,11,1,13,0.00
2013-5-25,76.5,62.1,47.7,46.4,39.9,34.8,77,47,24,30.33,30.15,7,0,13,0.00
2013-5-26,77.6,65.5,53.6,52.2,46.9,37.6,87,53,33,30.27,30.15,4,0,9,0.00
2013-5-27,84.5,71.9,59.0,59.4,53.8,49.5,80,55,35,30.19,30.04,6,0,8,0.00
2013-5-28,86.5,76.0,65.6,62.1,58.2,54.0,77,56,35,30.14,30.02,8,0,9,0.00
2013-5-29,88.2,76.9,64.3,63.8,59.7,55.0,80,57,37,30.16,30.03,6,0,8,0.00
2013-5-30,89.9,76.8,64.7,63.4,58.8,53.1,79,56,32,30.18,30.03,4,0,13,0.00
2013-5-31,88.8,77.1,66.4,64.3,59.7,55.1,78,56,32,30.12,29.99,8,0,14,0.00
2013-6-1,86.7,77.3,68.3,68.9,62.8,58.3,96,63,40,30.01,29.89,8,1,11,0.00
2013-6-2,77.2,69.0,65.6,69.1,67.3,64.4,100,94,72,29.93,29.84,4,0,13,0.20
2013-6-3,81.8,70.6,62.7,66.4,62.2,56.2,100,77,44,29.95,29.85,7,0,8,0.02
2013-6-4,84.1,72.7,61.0,61.9,57.8,53.3,90,62,37,30.01,29.93,8,1,11,0.00
2013-6-5,88.4,72.6,64.7,70.3,63.7,57.3,98,76,46,30.00,29.86,6,0,9,0.00
2013-6-6,82.6,72.6,63.4,68.8,65.6,63.0,100,81,54,29.89,29.70,6,0,7,0.01
2013-6-7,82.8,73.5,66.4,68.3,65.1,58.4,97,77,45,29.81,29.65,7,0,10,0.00
2013-6-8,81.6,71.9,64.0,67.3,63.4,59.4,98,77,50,30.02,29.80,4,0,8,0.00
2013-6-9,82.0,70.4,65.3,68.2,63.1,61.4,90,79,58,30.06,30.01,9,0,10,0.00
2013-6-10,81.9,71.5,67.4,71.0,65.7,58.0,99,83,53,29.93,29.81,11,1,11,0.00
2013-6-11,87.2,75.8,64.2,73.7,65.6,58.9,99,74,44,29.99,29.90,2,0,2,0.01
2013-6-12,92.3,81.1,70.4,77.8,70.3,63.5,91,71,54,29.99,29.85,0,0,0,0.00
2013-6-13,87.0,77.7,69.5,78.1,69.8,60.9,88,77,68,29.86,29.68,6,0,6,0.00
2013-6-14,81.6,72.0,61.0,62.6,57.2,51.7,89,62,39,30.00,29.85,2,0,4,0.00
2013-6-15,85.3,74.2,61.5,67.2,59.3,54.7,85,61,41,30.09,29.99,0,0,0,0.00
2013-6-16,86.5,76.8,67.6,69.7,63.3,59.4,96,64,46,30.07,29.94,0,0,9,0.00
2013-6-17,83.0,74.1,68.4,71.0,68.7,66.3,100,85,63,30.00,29.87,4,0,7,0.00
2013-6-18,75.3,70.6,67.9,73.1,66.4,62.2,99,87,70,29.93,29.81,8,0,10,0.00
2013-6-19,85.3,73.3,63.2,67.2,63.3,60.9,98,73,46,30.03,29.91,1,0,6,0.00
2013-6-20,86.7,76.2,66.0,68.5,64.2,60.9,95,69,44,30.15,30.02,0,0,0,0.00
2013-6-21,87.4,75.3,66.3,68.5,64.7,61.2,92,71,45,30.20,30.10,0,0,0,0.00
2013-6-22,86.7,76.3,65.2,67.5,64.1,59.6,95,69,42,30.19,30.03,0,0,0,0.00
2013-6-23,88.8,77.7,66.1,68.8,64.4,60.0,93,66,40,30.16,30.05,0,0,0,0.00
2013-6-24,89.9,77.3,67.4,71.4,66.6,62.1,94,71,45,30.17,30.03,0,0,0,0.00
2013-6-25,87.8,76.7,70.6,72.6,68.5,63.9,93,77,50,30.12,29.97,0,0,0,0.00
2013-6-26,89.3,75.8,69.4,73.0,70.4,65.9,96,84,58,30.00,29.82,0,0,4,0.00
2013-6-27,75.6,73.8,72.8,72.1,71.1,70.3,93,91,89,29.85,29.84,1,0,7,0.00
2013-6-29,72.1,72.1,72.1,61.4,61.2,61.0,69,68,68,29.64,29.64,0,0,0,0.00
2013-6-30,71.8,70.9,69.9,62.2,61.6,60.9,74,73,69,29.64,29.63,0,0,0,0.00
2013-7-4,78.6,72.5,0.0,72.2,69.6,65.8,99,90,73,30.13,30.05,8,1,11,0.28
2013-7-5,81.2,73.6,68.1,71.6,69.0,67.5,100,86,66,30.13,30.06,4,0,7,0.05
2013-7-6,82.6,71.7,67.3,74.1,69.0,67.1,100,92,66,30.11,30.04,0,0,0,1.34
2013-7-7,72.8,68.6,66.6,69.9,67.6,65.0,100,97,83,30.14,30.05,4,0,7,1.18
2013-7-8,87.4,74.8,66.6,72.2,67.7,63.7,100,81,51,30.18,30.06,0,0,2,0.00
2013-7-9,91.6,78.9,69.3,74.7,70.5,65.3,98,77,50,30.12,30.00,0,0,0,0.00
2013-7-10,90.7,77.8,72.3,76.0,71.8,68.2,94,83,58,30.04,29.94,0,0,0,0.00
2013-7-11,85.8,75.5,69.8,73.6,69.5,65.4,98,83,61,29.94,29.84,0,0,0,0.27
2013-7-12,83.2,74.1,68.1,68.9,64.7,58.8,93,74,48,29.94,29.86,0,0,0,0.00
2013-7-13,85.9,75.4,66.8,69.8,64.2,60.7,85,69,48,30.02,29.90,0,0,0,0.00
2013-7-14,86.3,77.1,69.9,72.6,66.9,62.8,84,71,57,30.16,30.01,0,0,0,0.06
2013-7-15,89.0,79.7,70.6,70.0,65.7,63.1,82,64,45,30.25,30.16,0,0,0,0.00
2013-7-16,90.5,81.1,70.3,71.1,67.7,65.2,87,65,45,30.28,30.19,0,0,0,0.00
2013-7-17,92.9,80.7,71.5,74.5,69.5,63.5,95,71,40,30.24,30.11,1,0,4,0.06
2013-7-18,89.9,78.1,68.9,73.1,70.4,68.3,99,79,54,30.18,30.00,6,0,7,0.02
2013-7-19,91.4,80.6,71.1,75.4,70.8,68.4,96,74,50,30.07,29.91,4,0,8,0.00
2013-7-20,92.3,80.1,72.3,74.7,70.7,66.9,95,75,47,29.98,29.86,9,0,10,0.36
2013-7-21,86.7,74.5,70.3,74.3,70.8,68.1,99,89,62,29.98,29.88,2,0,10,0.13
2013-7-22,81.6,73.4,70.6,74.9,70.6,68.7,98,91,70,29.94,29.79,7,0,10,0.13
2013-7-23,85.1,74.9,67.9,73.7,70.0,66.0,99,86,62,29.88,29.76,6,0,16,0.27
2013-7-24,85.5,76.5,70.4,73.4,69.9,64.1,100,82,53,29.85,29.75,4,0,11,0.00
2013-7-25,84.7,73.8,65.5,66.9,62.9,58.6,95,71,46,30.00,29.84,7,0,10,0.00
2013-7-26,88.6,74.1,62.6,69.6,63.9,58.3,90,72,49,30.04,29.94,7,0,14,0.00
2013-7-27,80.5,73.6,67.9,72.3,67.7,62.3,96,83,61,29.95,29.83,4,0,7,0.35
2013-7-28,84.0,74.9,66.6,68.4,62.8,54.6,96,69,39,30.02,29.86,4,0,9,0.00
2013-7-29,81.8,70.2,58.3,59.3,54.8,44.5,87,61,27,30.16,30.02,7,0,9,0.00
2013-7-30,78.3,70.4,60.7,65.7,60.5,55.2,88,72,56,30.20,30.11,6,0,10,0.00
2013-7-31,77.7,70.7,64.7,69.0,65.3,59.2,97,83,68,30.11,29.93,7,0,10,0.03
2013-8-1,71.3,70.8,70.4,68.5,68.3,68.0,93,92,91,29.94,29.93,0,0,0,0.00
2013-8-2,79.6,75.1,71.8,64.0,61.8,58.8,73,64,57,29.98,29.96,0,0,1,0.00
2013-8-3,77.0,75.2,73.9,70.6,70.4,70.1,89,85,80,29.96,29.94,0,0,1,0.00
2013-8-4,85.1,76.8,68.4,71.1,64.7,57.2,97,69,40,30.03,29.95,7,0,14,0.00
2013-8-5,87.6,75.3,63.9,65.0,60.2,52.4,84,62,31,30.04,29.92,4,0,7,0.00
2013-8-6,86.1,77.0,69.4,71.7,66.8,60.0,87,72,52,29.97,29.89,4,0,6,0.00
2013-8-7,82.0,75.9,71.6,73.9,71.3,69.4,98,86,71,30.00,29.89,4,0,7,0.29
2013-8-8,82.2,75.2,70.8,74.7,70.9,67.5,95,87,74,30.00,29.92,1,0,8,0.06
2013-8-9,89.0,77.8,69.9,76.3,71.6,67.2,99,82,60,30.02,29.93,2,0,7,0.00
2013-8-10,90.7,76.0,70.3,75.3,71.9,69.1,99,88,56,30.07,30.00,2,0,7,0.15
2013-8-11,88.6,74.6,69.1,77.3,71.3,68.7,100,91,58,30.12,30.01,9,0,9,0.58
2013-8-12,86.7,75.8,69.9,75.1,71.7,69.6,100,88,63,30.06,29.92,2,0,7,0.00
2013-8-13,87.4,76.4,71.1,74.3,71.1,66.6,99,85,57,29.93,29.82,4,0,8,0.18
2013-8-14,79.2,70.6,64.5,66.7,60.1,53.9,89,71,44,30.03,29.89,7,0,9,0.00
2013-8-15,82.6,71.5,62.7,65.2,58.3,53.1,76,64,48,30.06,29.96,1,0,4,0.00
2013-8-16,81.4,72.6,64.7,66.3,61.7,58.3,87,70,46,30.06,29.99,2,0,6,0.00
2013-8-17,75.3,69.3,64.2,66.2,61.8,57.2,95,78,59,30.11,30.03,0,0,1,0.55
2013-8-18,79.8,70.1,66.0,70.2,66.8,64.4,100,90,61,30.16,30.06,4,0,7,0.19
2013-8-19,80.5,72.3,67.3,70.6,67.9,65.8,99,87,61,30.12,30.04,2,0,7,0.01
2013-8-20,86.3,74.4,67.8,74.3,68.4,63.6,98,83,53,30.14,30.04,1,0,1,0.06
2013-8-21,82.2,73.3,68.8,71.7,69.6,67.2,100,89,66,30.17,30.07,1,0,6,0.21
2013-8-22,89.0,76.9,68.3,73.4,69.4,66.9,100,80,50,30.14,29.99,0,0,1,0.00
2013-8-23,87.8,74.3,68.6,73.0,69.3,65.0,100,85,51,30.04,29.97,2,0,6,0.01
2013-8-24,87.2,74.6,65.6,70.5,63.5,55.5,99,73,37,30.18,30.04,10,0,11,0.01
2013-8-25,86.5,74.1,63.2,65.7,59.6,54.3,84,62,42,30.32,30.18,0,0,0,0.00
2013-8-26,69.3,67.9,67.1,59.1,58.2,57.6,72,71,70,30.25,30.24,0,0,0,0.00
2013-10-20,65.6,58.2,41.2,42.3,38.5,32.7,93,50,33,30.11,30.02,7,0,8,0.00
2013-10-21,70.9,55.2,41.6,55.0,43.3,37.2,96,67,36,30.12,29.97,8,0,8,0.00
2013-10-22,69.3,57.3,49.2,51.1,48.4,45.4,92,73,50,30.00,29.83,7,0,8,0.00
2013-10-23,56.3,46.3,36.8,48.0,39.0,31.7,96,77,52,30.11,29.77,7,0,8,0.00
2013-10-24,59.0,45.0,36.0,39.7,36.1,28.8,91,73,42,30.25,30.10,7,0,11,0.00
2013-10-25,39.6,34.5,31.2,29.9,26.4,23.8,84,72,60,30.45,30.27,8,0,9,0.00
2013-10-26,59.0,45.4,30.4,38.0,28.3,22.9,85,54,27,30.36,30.10,9,2,9,0.00
2013-10-27,65.0,54.7,49.4,49.3,39.8,31.7,79,58,40,30.13,30.06,6,0,6,0.00
2013-10-28,71.8,58.3,52.5,55.8,51.4,48.3,95,79,51,30.24,30.10,8,0,8,0.01
2013-10-29,73.3,61.5,53.6,55.9,52.3,47.7,97,74,41,30.31,30.20,6,0,7,0.02
2013-10-30,81.6,67.2,59.6,58.1,54.5,51.8,86,66,40,30.24,30.09,6,0,14,0.00
2013-10-31,71.8,65.9,60.2,59.8,55.8,53.4,83,71,58,30.09,29.63,17,1,21,0.01
2013-11-1,77.9,64.8,54.2,63.6,53.0,41.9,99,69,39,29.77,29.61,9,1,21,0.02
2013-11-2,66.3,53.6,46.8,46.7,40.7,33.0,89,64,34,30.08,29.75,7,0,15,0.00
2013-11-3,62.6,49.0,39.3,42.1,36.3,31.8,96,65,34,30.31,30.07,11,0,14,0.00
2013-11-4,64.8,52.4,39.6,39.5,34.6,31.9,79,53,31,30.41,30.30,6,0,10,0.00
2013-11-5,70.9,56.0,46.5,39.1,34.3,29.6,67,45,27,30.44,30.29,8,1,11,0.00
2013-11-6,75.6,61.1,49.8,53.0,44.6,26.9,72,55,38,30.29,30.02,7,0,10,0.00
2013-11-7,62.9,51.0,38.9,58.0,41.9,28.9,99,73,44,30.29,29.98,10,1,17,0.00
2013-11-8,59.3,44.6,35.6,29.9,24.3,18.2,73,48,22,30.40,30.27,9,0,13,0.00
2013-11-9,57.0,46.1,33.8,33.6,29.2,22.1,79,53,34,30.33,30.21,9,0,9,0.00
2013-11-10,72.1,53.9,41.2,40.8,31.4,20.0,79,45,26,30.30,30.21,6,0,9,0.00
2013-11-11,68.1,51.8,38.9,31.0,25.4,22.0,65,37,19,30.32,30.14,8,0,10,0.00
2013-11-12,52.2,39.9,27.0,40.2,25.8,12.6,78,58,41,30.60,30.10,14,1,21,0.00
2013-11-13,27.0,26.1,25.3,15.9,14.9,14.1,65,62,58,30.61,30.59,4,0,6,0.00
2013-11-14,59.3,40.1,25.7,32.0,18.5,12.8,78,46,20,30.52,30.30,6,0,6,0.00
2013-11-15,48.3,41.9,35.8,43.3,30.0,16.1,95,65,41,30.30,30.18,10,0,10,0.00
2013-11-16,64.8,51.3,43.8,56.0,47.8,43.0,99,89,63,30.22,30.08,4,0,9,0.00
2013-11-17,64.8,58.1,52.0,64.2,55.9,50.6,100,93,74,30.08,29.78,8,0,16,0.00
2013-11-18,70.1,57.5,44.9,59.6,41.1,27.1,100,60,21,30.13,29.82,8,0,13,0.00
2013-11-19,55.6,44.2,36.6,29.4,25.3,18.5,66,49,27,30.25,30.14,11,1,15,0.00
2013-11-20,59.8,47.0,35.2,30.7,26.8,23.5,73,47,27,30.31,30.18,8,1,11,0.00
2013-11-21,62.6,52.0,42.5,46.2,37.2,25.9,73,58,43,30.37,30.25,7,0,13,0.00
2013-11-22,56.3,53.5,51.4,55.7,49.6,43.2,99,87,70,30.29,30.17,6,0,11,0.00
2013-11-23,51.3,42.9,29.4,48.6,33.8,16.4,92,71,49,30.43,30.20,8,1,18,0.00
2013-11-24,39.6,28.9,21.4,16.6,8.5,0.8,65,44,23,30.62,30.42,10,1,17,0.00
2013-11-25,36.9,30.7,24.8,30.0,13.6,4.9,89,50,33,30.51,30.22,6,0,8,0.00
2013-11-26,42.8,37.0,32.9,42.8,36.0,30.3,100,96,90,30.22,29.76,9,1,15,0.92
2013-11-27,35.8,30.6,27.0,33.9,25.2,18.4,95,81,63,30.33,29.82,9,1,17,0.05
2013-11-28,44.1,31.6,21.8,22.4,18.6,16.0,78,59,38,30.50,30.33,7,2,8,0.02
2013-11-29,52.2,39.0,28.2,30.2,23.6,15.2,88,58,27,30.60,30.49,7,1,13,0.00
2013-11-30,53.8,41.5,30.9,30.2,26.5,22.9,76,55,36,30.54,30.29,4,0,9,0.00
2013-12-1,59.0,44.8,31.8,35.8,30.8,26.5,85,60,35,30.30,29.99,6,0,8,0.00
2013-12-2,47.6,45.6,43.9,45.0,41.5,34.6,96,86,61,29.98,29.81,1,0,4,0.01
2013-12-3,56.9,49.7,44.2,50.0,46.6,43.3,100,90,76,29.88,29.82,6,0,8,0.09
2013-12-4,70.8,59.5,49.8,60.8,51.9,46.7,93,77,59,29.95,29.84,9,2,9,0.00
2013-12-5,72.5,66.5,62.3,63.6,60.0,52.9,94,80,69,29.97,29.86,10,2,15,0.03
2013-12-6,67.6,44.2,36.3,62.6,42.7,35.3,98,94,74,30.19,29.88,9,2,18,1.35
2013-12-7,39.5,36.1,34.3,35.6,32.8,30.0,96,88,78,30.44,30.19,10,1,13,0.01
2013-12-8,41.1,36.9,34.1,40.4,35.3,30.0,98,94,84,30.36,30.14,8,0,9,0.63
2013-12-9,40.5,35.9,34.1,38.4,34.7,33.1,96,95,92,30.16,30.02,2,1,8,0.06
2013-12-10,47.3,34.5,25.1,33.1,27.1,20.9,97,76,44,30.45,30.04,10,0,17,0.06
2013-12-11,52.9,37.3,24.8,28.6,23.0,19.4,88,59,28,30.48,30.35,7,0,9,0.00
2013-12-12,46.2,33.2,23.5,22.6,15.3,8.9,74,50,23,30.56,30.42,7,0,11,0.00
2013-12-13,53.9,36.7,23.9,21.0,18.2,15.3,78,50,23,30.42,30.15,9,0,11,0.00
2013-12-14,47.3,42.5,37.2,47.0,35.7,18.0,99,79,38,30.16,29.80,9,1,13,0.37
2013-12-15,43.5,34.8,28.5,42.0,30.0,24.8,95,83,69,30.22,29.83,6,1,13,0.01
2013-12-16,49.9,39.3,28.1,32.5,29.4,24.8,90,69,47,30.26,30.11,13,2,14,0.00
2013-12-17,57.8,46.0,35.2,35.2,29.9,21.6,73,54,39,30.22,29.98,13,2,18,0.00
2013-12-18,53.3,38.2,27.9,26.0,20.3,16.0,78,51,26,30.35,30.22,6,0,9,0.00
2013-12-19,59.8,43.1,30.1,26.0,21.7,17.2,70,45,22,30.33,30.13,4,0,7,0.00
2013-12-20,59.5,48.7,37.2,42.0,32.0,23.9,68,53,37,30.18,30.04,6,0,7,0.00
2013-12-21,71.5,60.4,50.8,63.3,49.7,39.5,89,68,61,30.03,29.76,14,1,18,0.03
2013-12-22,71.3,58.5,54.5,63.0,56.0,52.4,100,92,67,30.03,29.75,14,2,29,1.46
2013-12-23,54.5,42.2,32.9,53.4,37.3,24.2,97,83,70,30.36,30.00,11,1,23,0.06
2013-12-24,37.8,30.5,23.0,24.9,18.1,11.5,72,60,38,30.50,30.35,7,1,13,0.00
2013-12-25,23.0,22.8,22.7,12.6,12.4,12.3,64,64,64,30.47,30.45,1,0,2,0.00
2013-12-26,56.6,38.7,28.5,37.0,23.5,19.3,77,56,31,30.40,30.31,10,1,10,0.00
2013-12-27,59.0,40.4,28.7,27.9,22.5,19.4,78,51,23,30.48,30.35,4,0,8,0.00
2013-12-28,44.5,37.5,30.4,37.2,28.5,22.8,94,71,51,30.41,30.06,7,0,8,0.27
2013-12-29,46.0,42.5,40.1,45.7,41.2,37.8,100,95,89,30.04,29.84,8,1,10,0.81
2013-12-30,42.9,37.3,34.6,40.2,31.8,27.0,94,81,68,30.24,30.03,8,1,13,0.00
2013-12-31,49.1,34.9,26.0,29.2,24.6,19.3,93,69,36,30.45,30.23,7,0,10,0.01
2014-1-1,48.8,35.9,26.1,28.2,24.4,21.4,87,65,36,30.38,30.09,6,0,9,0.00
2014-1-2,39.3,35.3,30.9,39.0,32.1,24.8,99,89,66,30.08,29.77,8,0,13,0.33